Погода в Такаяме

Япония     36°08′49″N   137°15′19″E
темп.,
°C
ветер,
м/с
пор.,
м/с
влажн.,
%
обл.,
%
осадки,
мм/ч
давл.,
гПа
погр.,
м
28 ноября, вс
вс2800:00−4с239961 0.4 1034107
03:00−4с239979 0.4 1034113
06:00−8ссв119868 0.1 103716
09:00−1с129144 0.1 1036235
12:00+2ссз238333 0.0 1034859
15:00+2ссз22869 0.0 1033587
18:00−7ссз119811 0.0 103711
21:00−9з019863 0.0 103810
29 ноября, пн
пн2900:00−9юз119853 0.0 103813
03:00−9ююз119763 0.0 103716
06:00−9юз1197100 0.0 103714
09:00−1ю1281100 0.0 1034165
12:00+5ю136986 0.0 1030493
15:00+6ююз118389 0.0 102876
18:00−4ююв119584 0.0 103316
21:00−4ю1194100 0.0 103420
30 ноября, вт
вт3000:00−3ю1194100 0.0 103221
03:00−5ю11965 0.0 103217
06:00−5ю119715 0.0 103020
09:00+2ю238356 0.0 1027206
12:00+7ю41182100 0.0 10221222
15:00+7ю4118796 0.1 1018702
18:00+4ююв3793100 0.1 1017165
21:00+5ююв31297100 0.6 1014487
1 декабря, ср
ср100:00+9ююв92389100 2.4 10071801
03:00+9ююв41393100 21.9 10041148
06:00+4зсз1198100 15.5 100737
09:00+4ю478734 16.1 1008804
12:00+4ююз578199 0.7 10081044
15:00+1ю3796100 3.4 1009562
18:00−1ю2596100 1.9 1011396
21:00−1ю2398100 4.0 1014229
2 декабря, чт
чт200:00−2всв1198100 2.2 1015214
03:00−4в1198100 2.8 101816
06:00−4зюз019895 0.3 101915
09:000ююз118755 0.3 1019252
12:00+3зюз11746 0.0 1016767
15:00+4юз127860 0.0 1016436
18:00−4ююв11975 0.0 102116
21:00−6ююв119828 0.0 102220